This is the latest recevied weather packets stored in our database for station/object KC9MWQ-13. If no packets are shown the sender has not sent any weather packets the latest 10 day(s).
| Time | Temp. | Humidity | Pressure | Rain* | Wind** | Luminosity | Snow |
|---|---|---|---|---|---|---|---|
| 1777754448 | 11.67° C | 49% | 1018.3 hPa | 0 mm | - | 249 W/m² | - |
| 1777754145 | 11.11° C | 50% | 1018.4 hPa | 0 mm | - | 611 W/m² | - |
| 1777753843 | 11.67° C | 50% | 1018.6 hPa | 0 mm | - | 612 W/m² | - |
| 1777753538 | 11.67° C | 50% | 1018.7 hPa | 0 mm | - | 613 W/m² | - |
| 1777753237 | 11.11° C | 52% | 1018.9 hPa | 0 mm | - | 490 W/m² | - |
| 1777752932 | 10.56° C | 51% | 1018.9 hPa | 0 mm | - | 498 W/m² | - |
| 1777752629 | 10.56° C | 51% | 1018.9 hPa | 0 mm | - | 214 W/m² | - |
| 1777752325 | 11.11° C | 51% | 1018.9 hPa | 0 mm | - | 515 W/m² | - |
| 1777752023 | 11.11° C | 49% | 1019.1 hPa | 0 mm | - | 697 W/m² | - |
| 1777751720 | 10.56° C | 52% | 1019.2 hPa | 0 mm | - | 748 W/m² | - |
| 1777751416 | 10.56° C | 51% | 1019.1 hPa | 0 mm | - | 331 W/m² | - |
| 1777751113 | 10.56° C | 55% | 1019.2 hPa | 0 mm | - | 518 W/m² | - |
| 1777750809 | 9.44° C | 52% | 1019.4 hPa | 0 mm | - | 373 W/m² | - |
| 1777750507 | 9.44° C | 57% | 1019.5 hPa | 0 mm | - | 258 W/m² | - |
| 1777750203 | 8.89° C | 57% | 1019.4 hPa | 0 mm | - | 235 W/m² | - |
| 1777749899 | 9.44° C | 57% | 1019.6 hPa | 0 mm | - | 198 W/m² | - |
| 1777749596 | 9.44° C | 52% | 1019.6 hPa | 0 mm | - | 277 W/m² | - |
| 1777749294 | 10° C | 53% | 1019.6 hPa | 0 mm | - | 304 W/m² | - |
| 1777748991 | 10.56° C | 52% | 1019.8 hPa | 0 mm | - | 349 W/m² | - |
| 1777748688 | 10.56° C | 52% | 1019.5 hPa | 0 mm | - | 493 W/m² | - |
| 1777748384 | 10° C | 54% | 1019.6 hPa | 0 mm | - | 367 W/m² | - |
| 1777748080 | 10° C | 56% | 1019.8 hPa | 0 mm | - | 402 W/m² | - |
| 1777747777 | 10.56° C | 49% | 1019.6 hPa | 0 mm | - | 455 W/m² | - |
| 1777747472 | 9.44° C | 57% | 1019.7 hPa | 0 mm | - | 913 W/m² | - |
| 1777747169 | 9.44° C | 58% | 1019.7 hPa | 0 mm | - | 314 W/m² | - |
* Rain latest hour (hover to see other rain measurements)
** Current wind speed in m/s (hover to see current wind gust speed)